Location: Nairn
(57.5833°N, 3.8667°W)
Time: 16:17:13
(UTC+00:00)

S-56A Canister/Altair - All Passes

Search period start: 26 November 2020 00:00
Search period end: 06 December 2020 00:00
Orbit: 633 x 2499 km, 38.9° (Epoch: 25 November)

Date Brightness Start Highest point End Pass type
(mag) Time Alt. Az. Time Alt. Az. Time Alt. Az.
26 Nov - 21:01:48 10° SSW 21:06:15 15° S 21:09:57 10° SE visible
26 Nov - 23:05:02 10° SW 23:08:45 15° S 23:11:54 10° SSE night (unlit)
27 Nov - 20:28:39 10° SSW 20:33:35 15° SSE 20:37:42 10° SE visible
27 Nov - 22:31:40 10° SW 22:36:12 16° S 22:39:57 10° SSE visible
28 Nov - 19:55:30 10° SSW 20:00:54 16° SSE 20:05:22 10° SE visible
28 Nov - 21:58:18 10° SW 22:03:38 18° S 22:07:55 10° SE visible
29 Nov - 00:04:37 10° SW 00:05:46 10° SSW 00:06:51 10° SSW night (unlit)
29 Nov - 19:22:22 10° SSW 19:28:10 16° SSE 19:32:57 10° SE visible
29 Nov - 21:24:55 10° SW 21:31:01 19° S 21:35:49 10° SE visible
29 Nov - 23:30:18 10° SW 23:33:17 13° SSW 23:35:56 10° S night (unlit)
30 Nov - 18:49:17 10° SSW 18:55:23 16° SSE 19:00:28 10° SE visible
30 Nov - 20:51:32 10° SW 20:58:21 21° S 21:03:38 10° SE visible
30 Nov - 22:56:31 10° SW 23:00:47 15° SSW 23:04:21 10° S visible
01 Dec - 18:16:14 10° S 18:22:34 16° SSE 18:27:54 10° ESE visible
01 Dec - 20:18:09 10° SW 20:25:38 22° S 20:31:24 10° SE visible
01 Dec - 22:22:54 10° WSW 22:28:14 17° SSW 22:32:33 10° SSE visible
02 Dec - 17:43:15 10° S 17:49:44 16° SSE 17:55:14 10° ESE visible
02 Dec - 19:44:46 10° SW 19:52:52 23° S 19:59:06 10° SE visible
02 Dec - 21:49:18 10° WSW 21:55:38 20° SSW 22:00:37 10° SSE visible
03 Dec - 17:10:22 10° S 17:16:51 16° SSE 17:22:26 10° ESE visible
03 Dec - 19:11:23 10° SW 19:20:02 24° S 19:26:45 10° SE visible
03 Dec - 21:15:44 10° WSW 21:22:59 22° SSW 21:28:35 10° SSE visible
03 Dec - 23:23:33 10° SW 23:25:00 11° SW 23:26:21 10° SSW visible
04 Dec - 16:37:36 10° S 16:43:56 15° SSE 16:49:30 10° ESE visible
04 Dec - 18:38:02 10° SW 18:47:10 24° S 18:54:18 10° ESE visible
04 Dec - 20:42:09 10° WSW 20:50:16 24° SSW 20:56:27 10° SE visible
04 Dec - 22:48:46 10° WSW 22:52:29 13° SW 22:55:43 10° S visible
05 Dec - 16:05:00 10° S 16:11:00 14° SE 16:16:25 10° ESE daylight
05 Dec - 18:04:42 10° SSW 18:14:15 24° SSE 18:21:48 10° ESE visible
05 Dec - 20:08:36 10° WSW 20:17:30 26° S 20:24:15 10° SE visible
05 Dec - 22:14:41 10° WSW 22:19:56 16° SSW 22:24:16 10° S visible
